Карточка аэропорта UMGG

Внимание!
Информация на этой странице в стадии наполнения.
Если вы не увидели какой-то информации, или заметили неточность - пожалуйста сообщите нам!
Спасибо!
Команда RU-STAFF
Название аэропортаGomel
Название аэропорта (англ.)Gomel
Превышение471 ft. (143.6 m.)
Координаты52°31.614', 31°1.002'
Высота перехода6000 ft
Эшелон переходаFL80; QNH<977hPa - FL90
Коды ответчика0030−0032; 6230-6277
Зона ОрВДМинск РПИ (UMMV)
Данные METARUMGG 031600Z 08005G08MPS 9999 SCT048 OVC070 04/M04 Q1021 NOSIG
Проноз погоды (TAF)UMGG 031104Z 0312/0412 10007MPS 9999 BKN030 TX07/0312Z TNM00/0403Z TEMPO 0312/0315 12007G12MPS FEW020CB TEMPO 0315/0406 3000 -SHRASN BKN010 SCT020CB TEMPO 0406/0412 12006G11MPS
NOTAMshow/hide NOTAM
AWOS   TABLE

Информация о ВПП

ВПП Длина ВПП (м.) Покрытие Курс ВПП Частота ILS
102569Цементобетон103109.3
282569Цементобетон283108.7

Диспетчерские позиции

Позывной Наименование органа УВД Частота
UMGG_APPHomiel Approach126.100
UMGG_TWRHomiel Tower118.100



Спутниковое изображение